This is the latest recevied weather packets stored in our database for station/object KI7MOQ. If no packets are shown the sender has not sent any weather packets the latest 10 day(s).
| Time | Temp. | Humidity | Pressure | Rain* | Wind** | Luminosity | Snow |
|---|---|---|---|---|---|---|---|
| 1777429976 | 12.78° C | 62% | 1025.1 hPa | 0 mm | - | 10 W/m² | - |
| 1777429674 | 12.78° C | 63% | 1025.2 hPa | 0 mm | - | 12 W/m² | - |
| 1777429369 | 12.78° C | 63% | 1025.1 hPa | 0 mm | - | 13 W/m² | - |
| 1777429065 | 12.78° C | 62% | 1025.2 hPa | 0 mm | - | 14 W/m² | - |
| 1777428762 | 13.33° C | 61% | 1025.3 hPa | 0 mm | - | 17 W/m² | - |
| 1777428457 | 13.33° C | 61% | 1025.2 hPa | 0 mm | - | 20 W/m² | - |
| 1777428153 | 13.33° C | 60% | 1025.1 hPa | 0 mm | - | 21 W/m² | - |
| 1777427849 | 13.33° C | 59% | 1025.2 hPa | 0 mm | - | 24 W/m² | - |
| 1777427546 | 13.33° C | 59% | 1025.2 hPa | 0 mm | - | 26 W/m² | - |
| 1777427242 | 13.33° C | 59% | 1025.3 hPa | 0 mm | - | 26 W/m² | - |
| 1777426940 | 13.33° C | 59% | 1025.3 hPa | 0 mm | - | 28 W/m² | - |
| 1777426637 | 13.33° C | 60% | 1025.2 hPa | 0 mm | - | 32 W/m² | - |
| 1777426333 | 13.89° C | 59% | 1025.1 hPa | 0 mm | - | 35 W/m² | - |
| 1777426028 | 13.89° C | 57% | 1025.2 hPa | 0 mm | - | 38 W/m² | - |
| 1777425723 | 13.89° C | 56% | 1025.1 hPa | 0 mm | - | 38 W/m² | - |
| 1777425418 | 13.89° C | 56% | 1025.3 hPa | 0 mm | - | 32 W/m² | - |
| 1777425115 | 14.44° C | 56% | 1025.2 hPa | 0 mm | - | 39 W/m² | - |
| 1777424811 | 14.44° C | 55% | 1025.2 hPa | 0 mm | - | 51 W/m² | - |
| 1777424507 | 14.44° C | 54% | 1025.1 hPa | 0 mm | - | 45 W/m² | - |
| 1777424202 | 14.44° C | 54% | 1025.1 hPa | 0 mm | - | 44 W/m² | - |
| 1777423900 | 14.44° C | 55% | 1025.1 hPa | 0 mm | - | 38 W/m² | - |
| 1777423597 | 14.44° C | 55% | 1024.9 hPa | 0 mm | - | 37 W/m² | - |
| 1777423292 | 14.44° C | 55% | 1025.2 hPa | 0 mm | - | 47 W/m² | - |
| 1777422986 | 14.44° C | 55% | 1025.1 hPa | 0 mm | - | 57 W/m² | - |
| 1777422682 | 14.44° C | 55% | 1025 hPa | 0 mm | - | 58 W/m² | - |
* Rain latest hour (hover to see other rain measurements)
** Current wind speed in m/s (hover to see current wind gust speed)